Regional Weather Roundup
Issued by NWS

Home | Current Version | Previous Version | Graphics & Text | Print | Product List | Glossary Off
Versions: 1 2 3 4 5 6 7 8 9 10 11 12 13 14 15 16 17 18 19 20 21 22 23 24 25 26 27 28 29 30 31 32 33 34 35 36 37 38 39 40 41 42 43 44 45 46 47 48 49 50

000
ASUS43 KTOP 281159
RWRKS

WEATHER ROUNDUP FOR KANSAS
NATIONAL WEATHER SERVICE GOODLAND KS
700 AM CDT FRI AUG 28 2015

NOTE:  "FAIR" INDICATES FEW OR NO CLOUDS BELOW 12,000 FEET WITH NO
SIGNIFICANT WEATHER AND/OR OBSTRUCTIONS TO VISIBILITY.

KSZ001>006-013>018-027>032-041>047-281300-
NORTHWEST KANSAS

CITY           SKY/WX    TMP DP  RH WIND       PRES   REMARKS
GOODLAND       CLEAR     58  55  90 W9        30.04S
6HR MIN TEMP:  57; 6HR MAX TEMP:  69;

HAYS           PTCLDY    70  57  64 W5        29.90R
HILL CITY      CLEAR     67  63  87 W7        29.92R
6HR MIN TEMP:  67; 6HR MAX TEMP:  76;

RUSSELL        PTCLDY    70  67  90 SW10      29.88R
6HR MIN TEMP:  70; 6HR MAX TEMP:  77; 6HR PCP: TRACE;

$$

KSZ061>065-074>080-084>089-281300-
SOUTHWEST KANSAS

CITY           SKY/WX    TMP DP  RH WIND       PRES   REMARKS
DODGE CITY     MOCLDY    68  63  84 SW7       29.96R
6HR MIN TEMP:  68; 6HR MAX TEMP:  70;

ELKHART          N/A     66  58  75 NW7         N/A
GARDEN CITY    PTCLDY    66  62  87 NW8       29.98R
6HR MIN TEMP:  66; 6HR MAX TEMP:  71;

GREAT BEND     PTCLDY    72  64  78 SW10      29.90S
LIBERAL        MOCLDY    70  63  78 W5        30.01S
PRATT          CLOUDY    70  64  83 SW14      29.93S
$$

KSZ066>073-081>083-090>101-281300-
SOUTHEAST KANSAS

CITY           SKY/WX    TMP DP  RH WIND       PRES   REMARKS
CHANUTE        CLOUDY    67  64  90 SE12      29.98S
6HR MIN TEMP:  66; 6HR MAX TEMP:  68;

COFFEYVILLE    CLOUDY    66  64  93 SE8       29.99S
6HR MIN TEMP:  65; 6HR MAX TEMP:  67;

HUTCHINSON     CLOUDY    73  65  75 S12       29.90S
6HR MIN TEMP:  72; 6HR MAX TEMP:  76;

NEWTON         CLOUDY    72  63  73 S20G26    29.93S
WICHITA INTL   CLOUDY    72  68  87 S13       29.93R
6HR MIN TEMP:  72; 6HR MAX TEMP:  74; 6HR PCP:  0.03;

WICHITA JABRA  LGT RAIN  71  68  90 S10       29.93F
6HR MIN TEMP:  71; 6HR MAX TEMP:  75; 6HR PCP:  0.09;

WICHITA MCCONL LGT RAIN  72  66  83 SE8       29.94S
WINFIELD       CLOUDY    70  66  87 SE8       29.96S
6HR MIN TEMP:  70; 6HR MAX TEMP:  74; 6HR PCP:  0.02;

$$

KSZ007>012-019>026-033>040-048>060-102>105-281300-
NORTHEAST KANSAS

CITY           SKY/WX    TMP DP  RH WIND       PRES   REMARKS
CONCORDIA      PTCLDY    70  65  84 S13       29.87S
6HR MIN TEMP:  70; 6HR MAX TEMP:  74; 6HR PCP:  0.14;

EMPORIA        CLOUDY    68  65  90 S13       29.93R
6HR MIN TEMP:  68; 6HR MAX TEMP:  70; 6HR PCP: TRACE;

LAWRENCE       CLOUDY    69  63  81 SE7       29.95R
6HR MIN TEMP:  69; 6HR MAX TEMP:  70;

MANHATTAN      LGT RAIN  72  67  84 S13       29.89F
6HR MIN TEMP:  70; 6HR MAX TEMP:  73; 6HR PCP:  0.43;

OLATHE IND     CLOUDY    68  64  87 S15       29.96F
6HR MIN TEMP:  68; 6HR MAX TEMP:  69;

OLATHE EXE     CLOUDY    67  63  87 S10       29.96S
6HR MIN TEMP:  67; 6HR MAX TEMP:  68;

SALINA         CLOUDY    73  65  75 SE7       29.88S
6HR MIN TEMP:  73; 6HR MAX TEMP:  77; 6HR PCP:  0.01;

TOPEKA BILLARD CLOUDY    70  65  84 S6        29.92F
6HR MIN TEMP:  69; 6HR MAX TEMP:  71; 6HR PCP: TRACE;

TOPEKA FORBES  CLOUDY    70  64  81 S6        29.93S
6HR MIN TEMP:  70; 6HR MAX TEMP:  72; 6HR PCP: TRACE;

$$



USA.gov is the U.S. government's official web portal to all federal, state and local government web resources and services.